FLOCK 3P'-2 (43120 NORAD) Tracking and Keplerian Element Data

This shows tracking and keplerian element data for the satellite.

Feedback or suggestion? Click here.




ElementValue
Catalog43120
NameFLOCK 3P'-2
Epoch Orbit20481
Epoch Day262.01610068
Epoch Year2021
RAAN334.1118
Inclination97.4069
Eccentricity0.0008466
Argument of Perigee235.938
Mean Anonmoly124.1055
Mean Motion15.24193755
Decay Rate1.307E-05
L11 43120U 18004K 21262.01610068 .00001307 00000-0 56546-4 0 9999
L22 43120 97.4069 334.1118 0008466 235.9380 124.1055 15.24193755204817

Live tracking and technical data element details for FLOCK 3P'-2 (NORAD 43120). FLOCK 3P'-2 can be tracked NOW for your location showing map with azimuth and elevation plus other details from your city location.

Track the satellite on the map from your city or location and see movement details for azimuth, elevation, latitude, longitude, range, height, and movement on the map or in text.







IsCatalogInMostPopularTable: catalog: 43120, numindb: 561
Update: records affected: 1



GetName: 43120 FLOCK 3P'-2

Hit Count: updated at: Sun, 26 Sep 2021 01:21:45 GMT